| time (UTC) | temp F | wind direction | speed knots | gust knots | rain 1hr in | rain 24hr in | rain mn in | humidity % | barometer mb |
| 20260508220020 | 60 | 217 | 0.9 | 5.2 | 0.00 | 0.00 | 0.00 | 27 | 1010.6 |
| 20260508214506 | 61 | 75 | 0.0 | 2.6 | 0.00 | 0.00 | 0.00 | 26 | 1010.7 |
| 20260508213118 | 62 | 264 | 0.0 | 2.6 | 0.00 | 0.00 | 0.00 | 26 | 1010.6 |
| 20260508211502 | 64 | 184 | 0.9 | 13.0 | 0.00 | 0.00 | 0.00 | 24 | 1010.9 |
| 20260508210101 | 63 | 125 | 0.9 | 7.8 | 0.00 | 0.00 | 0.00 | 23 | 1011.0 |
| 20260508204622 | 62 | 111 | 0.9 | 9.6 | 0.00 | 0.00 | 0.00 | 26 | 1011.1 |
| 20260508203102 | 63 | 243 | 0.9 | 4.3 | 0.00 | 0.00 | 0.00 | 24 | 1011.2 |
| 20260508201610 | 63 | 208 | 0.9 | 9.6 | 0.00 | 0.00 | 0.00 | 22 | 1011.2 |
| 20260508200126 | 63 | 217 | 0.9 | 6.1 | 0.00 | 0.00 | 0.00 | 25 | 1011.3 |
| 20260508194556 | 63 | 273 | 4.3 | 15.6 | 0.00 | 0.00 | 0.00 | 24 | 1011.3 |
| 20260508193057 | 63 | 266 | 1.7 | 6.1 | 0.00 | 0.00 | 0.00 | 23 | 1011.4 |
| 20260508191552 | 63 | 78 | 3.5 | 7.8 | 0.00 | 0.00 | 0.00 | 22 | 1011.6 |
| 20260508190057 | 62 | 189 | 1.7 | 7.8 | 0.00 | 0.00 | 0.00 | 25 | 1011.6 |
| 20260508184548 | 63 | 150 | 1.7 | 6.1 | 0.00 | 0.00 | 0.00 | 25 | 1011.6 |
| 20260508183049 | 62 | 90 | 1.7 | 4.3 | 0.00 | 0.00 | 0.00 | 25 | 1012.0 |
| 20260508181606 | 61 | 202 | 2.6 | 0.0 | 0.00 | 0.00 | 0.00 | 26 | 1012.0 |
| 20260508180052 | 61 | 233 | 1.7 | 9.6 | 0.00 | 0.00 | 0.00 | 26 | 1012.3 |
| 20260508174540 | 60 | 41 | 0.9 | 5.2 | 0.00 | 0.00 | 0.00 | 28 | 1012.4 |
| 20260508173040 | 60 | 65 | 2.6 | 8.7 | 0.00 | 0.00 | 0.00 | 30 | 1012.2 |
| 20260508171537 | 59 | 155 | 0.9 | 7.0 | 0.00 | 0.00 | 0.00 | 28 | 1012.6 |
| 20260508170031 | 58 | 238 | 0.9 | 7.0 | 0.00 | 0.00 | 0.00 | 29 | 1012.9 |
| 20260508164535 | 58 | 191 | 1.7 | 8.7 | 0.00 | 0.00 | 0.00 | 28 | 1013.0 |
| 20260508163022 | 58 | 274 | 0.9 | 7.0 | 0.00 | 0.00 | 0.00 | 28 | 1013.0 |
| 20260508161519 | 57 | 175 | 0.9 | 9.6 | 0.00 | 0.00 | 0.00 | 30 | 1013.4 |
| 20260508160022 | 56 | 207 | 1.7 | 7.8 | 0.00 | 0.00 | 0.00 | 31 | 1013.7 |
| 20260508154506 | 55 | 139 | 1.7 | 10.4 | 0.00 | 0.00 | 0.00 | 33 | 1014.1 |
| 20260508070031 | 33 | 75 | 0.0 | 0.0 | 0.00 | 0.00 | 0.00 | 70 | 1016.7 |
| 20260508064538 | 34 | 75 | 0.0 | 0.0 | 0.00 | 0.00 | 0.00 | 70 | 1016.7 |
| 20260508063030 | 33 | 75 | 0.0 | 0.0 | 0.00 | 0.00 | 0.00 | 69 | 1016.8 |
| 20260508061529 | 34 | 75 | 0.0 | 1.7 | 0.00 | 0.00 | 0.00 | 69 | 1016.8 |
| 20260508054524 | 35 | 252 | 0.0 | 0.0 | 0.00 | 0.00 | 0.00 | 66 | 1016.8 |
| 20260508053028 | 35 | 252 | 0.0 | 0.0 | 0.00 | 0.00 | 0.00 | 65 | 1016.9 |
| 20260508051524 | 35 | 252 | 0.0 | 0.0 | 0.00 | 0.00 | 0.00 | 66 | 1016.9 |
| 20260508050026 | 36 | 255 | 0.0 | 0.0 | 0.00 | 0.00 | 0.00 | 64 | 1016.8 |
| 20260508044523 | 37 | 255 | 0.0 | 0.0 | 0.00 | 0.00 | 0.00 | 63 | 1016.9 |
| 20260508043022 | 38 | 255 | 0.0 | 0.0 | 0.00 | 0.00 | 0.00 | 60 | 1017.0 |
| 20260508041521 | 39 | 255 | 0.0 | 0.0 | 0.00 | 0.00 | 0.00 | 59 | 1017.0 |
| 20260508040024 | 40 | 255 | 0.0 | 0.9 | 0.00 | 0.00 | 0.00 | 56 | 1017.0 |
| 20260508034523 | 41 | 276 | 0.0 | 1.7 | 0.00 | 0.00 | 0.00 | 56 | 1017.0 |
| 20260508033023 | 42 | 250 | 0.0 | 0.0 | 0.00 | 0.00 | 0.00 | 53 | 1017.0 |
| 20260508031526 | 43 | 34 | 0.0 | 0.0 | 0.00 | 0.00 | 0.00 | 49 | 1016.8 |
| 20260508030019 | 44 | 266 | 0.0 | 0.0 | 0.00 | 0.00 | 0.00 | 46 | 1016.8 |
| 20260508024518 | 46 | 274 | 0.0 | 0.0 | 0.00 | 0.00 | 0.00 | 44 | 1016.5 |
| 20260508023026 | 48 | 102 | 0.0 | 0.9 | 0.00 | 0.00 | 0.00 | 40 | 1016.3 |
| 20260508021517 | 48 | 134 | 0.0 | 2.6 | 0.00 | 0.00 | 0.00 | 39 | 1016.2 |
| 20260508020016 | 49 | 148 | 0.0 | 2.6 | 0.00 | 0.00 | 0.00 | 40 | 1016.3 |
| 20260508014533 | 50 | 135 | 0.0 | 0.9 | 0.00 | 0.00 | 0.00 | 38 | 1016.3 |
| 20260508013015 | 51 | 191 | 0.0 | 2.6 | 0.00 | 0.00 | 0.00 | 37 | 1016.2 |
| 20260508011518 | 52 | 176 | 0.0 | 4.3 | 0.00 | 0.00 | 0.00 | 35 | 1016.1 |
| 20260508010023 | 55 | 147 | 0.0 | 4.3 | 0.00 | 0.00 | 0.00 | 30 | 1016.0 |
| 20260508004520 | 57 | 146 | 1.7 | 7.0 | 0.00 | 0.00 | 0.00 | 28 | 1016.1 |
| 20260508003033 | 58 | 236 | 1.7 | 6.1 | 0.00 | 0.00 | 0.00 | 27 | 1016.3 |
| 20260508001509 | 59 | 153 | 2.6 | 6.1 | 0.00 | 0.00 | 0.00 | 25 | 1016.3 |
| 20260508000009 | 60 | 190 | 1.7 | 5.2 | 0.00 | 0.00 | 0.00 | 26 | 1016.5 |
| 20260507234506 | 59 | 213 | 1.7 | 5.2 | 0.00 | 0.00 | 0.00 | 25 | 1016.6 |
| 20260507233006 | 58 | 169 | 1.7 | 4.3 | 0.00 | 0.00 | 0.00 | 27 | 1016.8 |
| 20260507231504 | 61 | 235 | 2.6 | 7.0 | 0.00 | 0.00 | 0.00 | 25 | 1016.8 |
| 20260507230004 | 59 | 190 | 0.9 | 7.0 | 0.00 | 0.00 | 0.00 | 26 | 1016.9 |
| 20260507224505 | 61 | 187 | 1.7 | 6.1 | 0.00 | 0.00 | 0.00 | 23 | 1017.1 |
| 20260507223001 | 61 | 212 | 1.7 | 7.0 | 0.00 | 0.00 | 0.00 | 22 | 1017.0 |
| 20260507221559 | 61 | 225 | 1.7 | 8.7 | 0.00 | 0.00 | 0.00 | 21 | 1017.2 |